DW4238 Weather Reports


Display with metric or nautical units.
time (UTC)temp
F
wind
direction
speed
MPH
gust
MPH
rain 1hr
in
rain 24hr
in
rain mn
in
humidity
%
barometer
mb
20260904091617 80 185 7.0 9.0 0.01 0.01 0.01 93 1011.8
20260904091129 80 181 6.0 8.0 0.01 0.01 0.01 93 1011.9
20260904090310 80 175 7.0 9.0 0.01 0.01 0.01 93 1011.9
20260904085611 81 159 7.0 9.0 0.01 0.01 0.01 93 1011.8
20260904084633 81 153 6.0 8.0 0.00 0.00 0.00 92 1011.9
20260904084124 81 183 5.0 8.0 0.00 0.00 0.00 92 1011.9
20260904083629 81 184 7.0 9.0 0.00 0.00 0.00 92 1011.9
20260904083055 81 190 7.0 9.0 0.00 0.00 0.00 92 1011.8
20260904082554 81 198 6.0 10.0 0.00 0.00 0.00 92 1011.9
20260904081624 81 194 7.0 9.0 0.00 0.00 0.00 92 1011.9
20260904081106 81 178 6.0 9.0 0.00 0.00 0.00 92 1011.9
20260904080129 81 183 4.0 7.0 0.00 0.00 0.00 92 1012.0
20260904075540 81 184 4.0 7.0 0.00 0.00 0.00 91 1012.0
20260904074600 81 184 4.0 5.0 0.00 0.00 0.00 91 1012.2
20260904074112 81 185 0.0 4.0 0.00 0.00 0.00 91 1012.2
20260904073622 81 180 1.0 5.0 0.00 0.00 0.00 91 1012.2
20260904073048 81 182 3.0 9.0 0.00 0.00 0.00 91 1012.2
20260904072558 81 182 5.0 9.0 0.00 0.00 0.00 91 1012.3
20260904071620 81 178 6.0 10.0 0.00 0.00 0.00 91 1012.4
20260904071044 81 166 4.0 8.0 0.00 0.00 0.00 91 1012.5
20260904070045 81 163 5.0 7.0 0.00 0.00 0.00 91 1012.5
20260904065535 81 156 4.0 6.0 0.00 0.00 0.00 91 1012.5
20260904065103 81 182 1.0 7.0 0.00 0.00 0.00 91 1012.6
20260904064541 81 161 2.0 8.0 0.00 0.00 0.00 91 1012.6
20260904064049 81 133 5.0 8.0 0.00 0.00 0.00 91 1012.6
20260904063539 81 145 4.0 8.0 0.00 0.00 0.00 91 1012.6
20260904063052 81 148 4.0 9.0 0.00 0.00 0.00 91 1012.5
20260904062542 81 148 4.0 11.0 0.00 0.00 0.00 91 1012.5
20260904062036 81 147 6.0 9.0 0.00 0.00 0.00 91 1012.4
20260904061549 81 169 5.0 12.0 0.00 0.00 0.00 91 1012.4
20260904061100 81 142 8.0 12.0 0.00 0.00 0.00 91 1012.4
20260904060552 81 138 5.0 8.0 0.00 0.00 0.00 90 1012.5
20260904060049 81 140 4.0 10.0 0.00 0.00 0.00 90 1012.5
20260904055535 81 142 6.0 10.0 0.00 0.00 0.00 90 1012.5
20260904055105 82 145 6.0 11.0 0.00 0.00 0.00 90 1012.5
20260904054604 82 146 7.0 12.0 0.00 0.00 0.00 90 1012.4
20260904054053 82 148 7.0 11.0 0.00 0.00 0.00 90 1012.4
20260904053536 81 155 4.0 11.0 0.00 0.00 0.00 90 1012.3
20260904053036 81 151 5.0 9.0 0.00 0.00 0.00 90 1012.3
20260904052545 81 133 5.0 9.0 0.00 0.00 0.00 90 1012.3
20260904052053 81 142 4.0 7.0 0.00 0.00 0.00 91 1012.2
20260904051547 81 145 4.0 7.0 0.00 0.00 0.00 90 1012.1
20260904051038 81 115 4.0 7.0 0.00 0.00 0.00 90 1012.1
20260904050547 81 140 3.0 7.0 0.00 0.00 0.00 90 1012.1
20260904050128 81 131 4.0 9.0 0.00 0.00 0.00 90 1012.1
20260904045539 81 140 4.0 10.0 0.00 0.00 0.00 90 1012.1
20260904044540 81 148 5.0 9.0 0.00 0.00 0.00 90 1012.1
20260904044051 81 143 6.0 9.0 0.00 0.00 0.00 90 1012.1
20260904043111 81 136 5.0 10.0 0.00 0.00 0.00 90 1012.0
20260904042621 81 148 6.0 10.0 0.00 0.00 0.00 89 1012.1
20260904041626 81 144 6.0 11.0 0.00 0.00 0.00 89 1012.1
20260904041130 81 146 6.0 11.0 0.00 0.00 0.00 89 1012.2
20260904040642 81 149 7.0 11.0 0.00 0.00 0.00 89 1012.2
20260904040048 81 169 7.0 11.0 0.00 0.00 0.00 89 1012.1
20260904035553 81 153 7.0 12.0 0.00 0.01 0.00 89 1012.1
20260904034622 81 137 7.0 14.0 0.00 0.01 0.00 89 1012.1
20260904034046 81 149 7.0 14.0 0.00 0.01 0.00 89 1012.3
20260904033046 81 145 8.0 13.0 0.00 0.01 0.00 88 1012.1
20260904032601 81 128 8.0 13.0 0.00 0.01 0.00 88 1012.1
20260904031603 81 142 8.0 13.0 0.00 0.01 0.00 88 1011.9
20260904031108 81 150 9.0 15.0 0.00 0.01 0.00 88 1011.9
20260904030619 81 143 11.0 15.0 0.00 0.01 0.00 88 1011.9
20260904030039 81 140 10.0 15.0 0.00 0.01 0.00 87 1012.0
20260904025550 81 165 10.0 14.0 0.00 0.02 0.00 87 1012.0
20260904024613 81 137 9.0 16.0 0.00 0.02 0.00 87 1011.9
20260904024102 81 159 9.0 17.0 0.00 0.02 0.00 87 1011.9
20260904023128 81 127 8.0 13.0 0.00 0.02 0.00 87 1011.6
20260904022641 81 140 8.0 14.0 0.00 0.02 0.00 86 1011.7
20260904022125 81 150 9.0 14.0 0.00 0.02 0.00 86 1011.5
20260904021553 81 142 9.0 12.0 0.00 0.02 0.00 86 1011.5
20260904021037 81 142 9.0 12.0 0.00 0.02 0.00 86 1011.6
20260904020057 81 134 8.0 15.0 0.00 0.02 0.00 85 1011.4
20260904015609 81 155 7.0 11.0 0.00 1.20 0.00 85 1011.3
20260904014612 81 127 7.0 12.0 0.00 1.20 0.00 85 1011.3
20260904014104 81 148 5.0 12.0 0.00 1.20 0.00 84 1011.2
20260904013613 81 128 7.0 15.0 0.00 1.20 0.00 84 1011.2
20260904013038 81 123 8.0 15.0 0.00 1.20 0.00 84 1011.2
20260904012550 81 163 8.0 15.0 0.00 1.20 0.00 84 1011.1
20260904011613 81 149 8.0 14.0 0.00 1.20 0.00 84 1010.9
20260904011125 81 126 10.0 14.0 0.00 1.20 0.00 84 1010.9
20260904010629 82 144 7.0 13.0 0.00 1.20 0.00 84 1010.9
20260904010101 82 148 8.0 15.0 0.00 1.20 0.00 83 1010.9
20260904005612 82 127 10.0 15.0 0.00 1.20 0.00 82 1010.8
20260904005154 82 140 8.0 12.0 0.00 1.20 0.00 82 1010.9
20260904004605 82 101 7.0 14.0 0.00 1.20 0.00 82 1010.9
20260904004115 82 142 7.0 14.0 0.00 1.20 0.00 82 1010.9
20260904003620 82 150 8.0 13.0 0.00 1.20 0.00 82 1010.9
20260904003048 82 105 6.0 13.0 0.00 1.20 0.00 83 1010.9
20260904002552 82 134 8.0 13.0 0.00 1.20 0.00 82 1011.0
20260904001620 83 146 6.0 12.0 0.00 1.20 0.00 82 1010.9
20260904001123 83 146 7.0 13.0 0.00 1.20 0.00 82 1010.9
20260904000625 83 150 6.0 13.0 0.00 1.20 0.00 82 1010.9
20260904000056 83 148 8.0 13.0 0.00 1.20 0.00 81 1010.9
20260903235608 83 140 8.0 12.0 0.00 1.20 0.00 81 1011.0
20260903234630 83 132 7.0 13.0 0.00 1.20 0.00 81 1010.9
20260903234121 83 127 7.0 12.0 0.00 1.20 0.00 81 1011.0
20260903233103 83 148 7.0 11.0 0.00 1.20 0.00 81 1011.1
20260903232607 83 117 6.0 12.0 0.00 1.20 0.00 81 1011.1
20260903231630 83 143 7.0 15.0 0.00 1.20 0.00 82 1011.1
20260903231045 83 126 9.0 15.0 0.00 1.20 0.00 82 1011.2
20260903230107 83 142 6.0 12.0 0.00 1.20 0.00 83 1011.1
20260903225618 83 137 6.0 12.0 0.00 1.20 0.00 82 1011.1
20260903225122 83 116 6.0 12.0 0.00 1.20 0.00 83 1011.2
20260903224549 83 117 7.0 12.0 0.00 1.20 0.00 83 1011.2
20260903224100 83 111 7.0 12.0 0.00 1.20 0.00 82 1011.2
20260903223123 83 136 7.0 12.0 0.00 1.20 0.00 82 1011.1
20260903222611 83 131 5.0 12.0 0.00 1.20 0.00 82 1011.1
20260903222122 82 160 5.0 11.0 0.00 1.20 0.00 83 1011.2
20260903221542 82 125 8.0 11.0 0.00 1.20 0.00 83 1011.3
20260903221053 83 104 6.0 11.0 0.00 1.20 0.00 83 1011.3
20260903220116 83 136 5.0 14.0 0.00 1.20 0.00 83 1011.4
20260903215627 83 135 8.0 14.0 0.00 1.20 0.00 82 1011.5
20260903215130 83 170 7.0 12.0 0.00 1.20 0.00 82 1011.5
20260903214556 83 142 7.0 12.0 0.00 1.20 0.00 82 1011.6
20260903214046 83 186 8.0 11.0 0.00 1.20 0.00 82 1011.8
20260903213105 83 137 7.0 15.0 0.00 1.20 0.00 82 1011.9
20260903212608 83 139 8.0 15.0 0.00 1.20 0.00 82 1012.0
20260903212114 83 155 10.0 14.0 0.00 1.20 0.00 82 1012.0
20260903211545 83 144 8.0 16.0 0.00 1.20 0.00 82 1012.1
20260903211050 83 140 9.0 16.0 0.00 1.20 0.00 82 1012.1
20260903210122 83 115 11.0 16.0 0.00 1.20 0.00 82 1012.2
20260903205601 83 155 12.0 17.0 0.00 1.20 0.00 83 1012.3
20260903204628 83 141 7.0 16.0 0.00 1.20 0.00 82 1012.2
20260903204119 84 160 9.0 15.0 0.00 1.20 0.00 81 1012.0
20260903203630 83 156 9.0 14.0 0.00 1.20 0.00 81 1012.1
20260903203051 83 150 7.0 13.0 0.00 1.20 0.00 80 1012.0
20260903202603 82 150 8.0 11.0 0.00 1.20 0.00 79 1012.0
20260903201603 82 111 7.0 13.0 0.00 1.20 0.00 80 1012.1
20260903201108 81 146 9.0 14.0 0.00 1.20 0.00 80 1012.2
20260903200126 82 150 8.0 19.0 0.00 1.20 0.00 78 1012.4
20260903195642 82 130 12.0 19.0 0.00 1.20 0.00 77 1012.6
20260903195132 82 135 8.0 15.0 0.00 1.20 0.00 79 1012.7
20260903194552 83 136 7.0 15.0 0.00 1.20 0.00 80 1012.7
20260903194104 84 135 5.0 19.0 0.00 1.20 0.00 82 1012.6
20260903193105 85 73 12.0 21.0 0.00 1.20 0.00 82 1012.5
20260903192617 87 76 11.0 20.0 0.00 1.20 0.00 79 1012.5
20260903192122 87 75 13.0 18.0 0.00 1.20 0.00 79 1012.4
20260903191547 87 76 11.0 18.0 0.00 1.20 0.00 79 1012.4
20260903191103 88 71 13.0 18.0 0.00 1.20 0.00 79 1012.4
20260903190124 89 74 10.0 14.0 0.00 1.20 0.00 78 1012.4
20260903185629 89 51 4.0 12.0 0.00 1.20 0.00 78 1012.4
20260903185115 89 24 7.0 12.0 0.00 1.20 0.00 78 1012.3
20260903184546 89 44 6.0 12.0 0.00 1.20 0.00 78 1012.5
20260903184051 89 28 4.0 11.0 0.00 1.20 0.00 78 1012.6
20260903183120 90 59 9.0 12.0 0.00 1.20 0.00 76 1012.5
20260903182604 91 69 5.0 9.0 0.00 1.20 0.00 75 1012.4
20260903182115 90 340 3.0 8.0 0.00 1.20 0.00 72 1012.5
20260903181540 90 355 3.0 6.0 0.00 1.20 0.00 73 1012.6
20260903181154 90 287 3.0 8.0 0.00 1.20 0.00 72 1012.6
20260903180545 90 239 3.0 8.0 0.00 1.20 0.00 73 1012.9
20260903180151 90 258 3.0 6.0 0.00 1.20 0.00 76 1013.0
20260903175620 89 26 0.0 5.0 0.00 1.20 0.00 78 1013.1
20260903175133 89 26 2.0 8.0 0.00 1.20 0.00 78 1013.1
20260903174552 89 35 3.0 11.0 0.00 1.20 0.00 79 1013.2
20260903174037 89 34 4.0 9.0 0.00 1.20 0.00 79 1013.2
20260903173629 88 51 5.0 9.0 0.00 1.20 0.00 80 1013.3
20260903173055 88 59 3.0 8.0 0.00 1.20 0.00 81 1013.4
20260903172539 88 54 4.0 8.0 0.00 1.20 0.00 81 1013.6
20260903171613 88 51 1.0 9.0 0.00 1.20 0.00 81 1013.8
20260903171056 87 78 2.0 9.0 0.00 1.20 0.00 82 1013.9
20260903170054 87 71 2.0 11.0 0.00 1.20 0.00 82 1013.8
20260903165605 87 84 5.0 10.0 0.00 1.20 0.00 83 1013.7
20260903164622 87 66 7.0 10.0 0.00 1.20 0.00 82 1013.7
20260903164122 87 69 5.0 9.0 0.00 1.20 0.00 82 1013.8
20260903163632 88 76 3.0 8.0 0.00 1.20 0.00 81 1013.8
20260903163037 88 221 4.0 10.0 0.00 1.20 0.00 76 1013.7
20260903162545 88 184 7.0 14.0 0.00 1.20 0.00 76 1013.8
20260903161614 87 161 6.0 13.0 0.00 1.20 0.00 78 1013.8
20260903161119 87 215 8.0 18.0 0.00 1.20 0.00 77 1013.8
20260903160630 87 192 13.0 18.0 0.00 1.20 0.00 77 1013.6
20260903160050 87 184 9.0 13.0 0.00 1.20 0.00 78 1013.7
20260903155601 87 224 8.0 12.0 0.00 1.20 0.00 81 1013.7
20260903154624 86 209 10.0 15.0 0.00 1.20 0.00 81 1013.8
20260903154039 86 200 8.0 14.0 0.00 1.20 0.00 82 1013.7
20260903153544 85 189 11.0 13.0 0.00 1.20 0.00 83 1013.7
20260903153155 85 173 8.0 12.0 0.00 1.20 0.00 85 1013.8
20260903152544 85 184 8.0 13.0 0.00 1.20 0.00 86 1013.8
20260903151606 84 178 10.0 14.0 0.00 1.20 0.00 86 1013.8
20260903151112 84 161 5.0 14.0 0.00 1.20 0.00 87 1013.7
20260903150141 84 176 9.0 13.0 0.00 1.20 0.00 88 1013.6
20260903145625 84 193 7.0 14.0 0.00 1.20 0.00 88 1013.7
20260903145134 83 205 10.0 13.0 0.00 1.20 0.00 89 1013.5
20260903144545 83 196 6.0 11.0 0.00 1.20 0.00 90 1013.4
20260903144048 83 197 8.0 11.0 0.00 1.20 0.00 90 1013.4
20260903143111 83 198 6.0 14.0 0.00 1.20 0.00 91 1013.5
20260903142602 82 219 8.0 10.0 0.00 1.20 0.00 91 1013.5
20260903141604 82 186 5.0 10.0 0.00 1.20 0.00 92 1013.5
20260903141108 82 180 4.0 8.0 0.00 1.20 0.00 93 1013.4
20260903140619 82 160 4.0 8.0 0.00 1.20 0.00 93 1013.5
20260903140050 82 188 5.0 9.0 0.00 1.20 0.00 93 1013.4
20260903135554 82 191 5.0 8.0 0.00 1.20 0.00 93 1013.4
20260903134556 81 190 3.0 6.0 0.00 1.20 0.00 93 1013.3
20260903134108 81 192 1.0 7.0 0.00 1.20 0.00 93 1013.4
20260903133609 81 155 4.0 9.0 0.00 1.20 0.00 93 1013.2
20260903133040 81 186 5.0 9.0 0.00 1.20 0.00 93 1013.2
20260903132548 81 188 6.0 9.0 0.00 1.20 0.00 93 1013.1
20260903131610 81 188 5.0 7.0 0.00 1.20 0.00 94 1013.1
20260903131055 80 191 5.0 9.0 0.00 1.20 0.00 94 1013.0
20260903130604 80 198 6.0 9.0 0.00 1.20 0.00 94 1012.9
20260903130151 80 186 6.0 8.0 0.00 1.20 0.00 94 1012.9
20260903125538 80 196 6.0 10.0 0.00 1.20 0.00 94 1012.8
20260903125150 80 201 6.0 9.0 0.00 1.20 0.00 94 1012.7
20260903124553 80 197 7.0 9.0 0.00 1.20 0.00 94 1012.6
20260903124050 80 200 6.0 8.0 0.00 1.20 0.00 94 1012.7
20260903123049 80 178 4.0 6.0 0.00 1.20 0.00 94 1012.7
20260903122601 80 186 4.0 7.0 0.00 1.20 0.00 94 1012.7
20260903121542 80 182 4.0 6.0 0.00 1.20 0.00 94 1012.6
20260903121046 80 165 3.0 7.0 0.00 1.20 0.00 94 1012.5
20260903120116 80 171 3.0 7.0 0.00 1.20 0.00 94 1012.6
20260903115621 80 166 5.0 7.0 0.00 1.20 0.00 94 1012.5
20260903115132 80 188 5.0 7.0 0.00 1.20 0.00 94 1012.5
20260903114553 80 170 4.0 6.0 0.00 1.20 0.00 94 1012.4
20260903114045 80 161 5.0 6.0 0.00 1.20 0.00 94 1012.4
20260903113106 80 178 5.0 8.0 0.00 1.20 0.00 94 1012.4
20260903112612 80 178 5.0 8.0 0.00 1.20 0.00 94 1012.3
20260903112122 80 166 6.0 8.0 0.00 1.20 0.00 94 1012.4
20260903111554 80 171 5.0 6.0 0.00 1.20 0.00 94 1012.3
20260903111055 80 169 4.0 6.0 0.00 1.20 0.00 94 1012.3
20260903110124 80 165 6.0 8.0 0.00 1.20 0.00 94 1012.3
20260903105608 80 183 4.0 5.0 0.00 1.20 0.00 94 1012.3
20260903104628 80 184 3.0 6.0 0.00 1.20 0.00 94 1012.2
20260903104039 80 186 4.0 8.0 0.00 1.20 0.00 94 1012.2
20260903103106 80 180 4.0 8.0 0.00 1.20 0.00 94 1012.2
20260903102618 80 190 4.0 7.0 0.00 1.20 0.00 94 1012.2
20260903102122 80 187 5.0 9.0 0.00 1.20 0.00 94 1012.2
20260903101550 80 181 4.0 7.0 0.00 1.20 0.00 94 1012.2
20260903101102 80 185 5.0 7.0 0.00 1.20 0.00 94 1012.3
20260903100103 80 182 4.0 7.0 0.00 1.20 0.00 94 1012.3
20260903095608 80 187 6.0 7.0 0.00 1.20 0.00 94 1012.2
20260903095120 80 178 3.0 5.0 0.00 1.20 0.00 94 1012.3
20260903094042 80 179 2.0 4.0 0.00 1.20 0.00 94 1012.4
20260903093105 80 178 2.0 5.0 0.00 1.20 0.00 94 1012.4
20260903092617 80 179 2.0 5.0 0.00 1.20 0.00 93 1012.4